Tracking 29059 objects as of 18-Jun-2024
HD Live streaming from Space Station
objects crossing your sky now

CZ-4C DEB

Track CZ-4C DEB now!
10-day predictions


NORAD ID: 37567
Int'l Code: 2010-038C
Perigee: 565.3 km
Apogee: 731.2 km
Inclination: 97.7 °
Period: 97.5 minutes
Semi major axis: 7019 km
RCS: 0.0012 m2 (small)
Launch date: August 9, 2010
Source: People's Republic of China (PRC)
Launch site: Taiyaun Space Center, China (TSC)

Note: This is SATELLITE DEBRIS
Your satellite tracking list
Your tracking list is empty




NASA's NSSDC Master Catalog

Two Line Element Set (TLE):
1 37567U 10038C   24169.79743131  .00010762  00000-0  13898-2 0  9994
2 37567  97.7458   5.8756 0118204 118.9763 254.7147 14.76275266733854
Source of the keplerian elements: AFSPC